map of OBN home
OBN - Airport
Location
City:  Oban, Argyll, Scotland, United Kingdom
Near (Alt.):North Connell
Name:Oban Airfield
ICAO:EGEO
IATA:OBN

Details
Type:Airport (Aerodrome, Airfield)
Latitude:5627'49"N (56.463500)
Longitude:523'59"W (-5.399666)
Datum:WGS 1984
Elevation:20 ft (6 m)
Variation:3.10W (WMM2015 magnetic declination)
0.18 annual change
Runways:2
Longest:4068 × 98 ft (1240 × 30 m), paved

Time
Time Zone:UTC+0 (DST+1)
Local Time:

Weather
METAR:EGEO 171420Z 30016KT 9999 -SHRA SCT038 11/06 Q1020

Related Locations
Nearby:
Farthest:SZS: 11714 mi / 18852 km
Ryan's Creek, Stewart Island, STL, NZ

Find:

   beyond  
but within

Other Information
Maps:
NOTAMs:
Links:
Sources:

  
  • flag of United Kingdom
  • flag of Scotland
  

Sectional Chart

Flight Planning
at skyvector.com

Satellite Image

Google Maps Satellite view

 

Copyright © 2004-2018 Karl L. Swartz. All rights reserved.
The Great Circle Mapper name and logo are trademarks of the Great Circle Mapper.
All other trademarks mentioned herein belong to their respective owners.
Please see credits for attibutions and further copyright information.

  Follow gcmap on Facebook Follow gcmap on Twitter Follow gcmap on Google+ GCmap on LinkedIn

hCard Microformat

Geo Microformat